Location: Unspecified
(0.0000°N, 0.0000°E)
Time: 21:48:23
(UTC+00:00)

Tiangong 2 - Pass Details

Date: 26 May 2017
Orbit: 380 x 389 km, 42.8° (Epoch: 24 May)

Event Time Altitude Azimuth Distance (km) Brightness Sun altitude
Exits shadow 04:25:16 12° 148° (SSE) 1,284 3.8 -21.3°
Drops below altitude 10° 04:25:31 10° 147° (SSE) 1,385 4.0 -21.3°
Sets 04:27:37 0° 142° (SE) 2,239 5.1 -20.8°
